GPS BIIRM-3 (PRN 12)

Last updated on Mon Oct 27 2025 00:03:23 GMT+0000 (Coordinated Universal Time)

1 29601U 06052A 25298.58608200 .00000010 00000+0 00000+0 0 9995 2 29601 54.9833 223.3084 0086191 87.0702 273.9431 2.00570508138708
UTC large
Height (km)
Speed (km/s)
/
Latitude / Longitude
Inclination (degrees)
Orbital Period (minutes)
Azimuth
Elevation
Range (km)
Doppler Factor

Next 0 passes for location: London (51.5072 / 0.1276)

Sorry there are no passes over London.